TIME,DELAY(SENSOR),PRES,T(CTD),SAL,OXYGEN,RAWTEMP,T(OPTODE),TCPHASE,FLUOR,BETA(BETA700),BETA(BETA412),BETA(BETA440),CDOM,C(CSC),ED(ED412.40),ED(ED444.00),ED(ED489.70),ED(ED554.30),LU(LU411.80),LU(LU443.40),LU(LU489.60),LU(LU554.10),COMP,TILTX,TILTX(TILTY),CHECK
1350508405,5807,493.3299865722656000,6.7116999626159670,34.1267013549804700,84.3937072753906200,596.7561035156250000,6.6890068054199220,48.3514595031738300,52,103,88,81,79,15181,2147754404,2147420553,2148007926,2147874477,2147630738,2147079186,2148242925,2147199872,244,4,13,45468
1350508546,5808,482.3599853515625000,6.8710999488830570,34.1212005615234400,90.1092834472656200,591.8383178710938000,6.8476028442382810,47.6358184814453100,52,105,85,80,79,15180,2147751762,2147424896,2148007021,2147873627,2147629449,2147081088,2148245970,2147202230,315,4,13,14707
1350508697,5809,471.9899902343750000,7.0178999900817870,34.1166000366210940,94.6148071289062500,586.6674804687500000,7.0141181945800780,47.0606193542480500,50,106,90,81,79,15178,2147749494,2147420269,2148004278,2147872173,2147627218,2147079698,2148248082,2147201005,2945,4,13,54103
1350508881,5810,459.5700073242187500,7.2197999954223630,34.1203994750976560,99.8155364990234400,580.7755737304688000,7.2035541534423830,46.4126091003418000,51,105,88,82,78,15179,2147748516,2147418998,2148005595,2147872475,2147626843,2147083428,2148242724,2147203282,2766,4,13,1379
1350509010,5806,448.6099853515625000,7.4205999374389650,34.1161994934082000,105.1743011474609400,574.4357910156250000,7.4070401191711430,45.7536506652832000,51,104,89,79,78,15177,2147747273,2147423104,2148006326,2147873462,2147626230,2147086189,2148246857,2147201526,1930,4,13,4214
1350509137,5807,437.1700134277344000,7.8368000984191895,34.1152000427246100,116.7343978881836000,561.7728271484375000,7.8124160766601560,44.3923416137695300,51,106,92,81,76,15177,2147749568,2147421339,2148008438,2147873426,2147627236,2147084096,2148241280,2147201188,1778,4,13,48515
1350509255,5808,426.0799865722656000,7.9384999275207520,34.1128997802734400,120.8761978149414000,558.7163085937500000,7.9100570678710940,43.9451408386230500,51,104,88,81,77,15182,2147746642,2147420726,2148006089,2147874240,2147624173,2147091136,2148238756,2147200320,3205,4,13,51845
1350509370,5808,415.1799926757812500,8.1275997161865230,34.1127014160156250,130.2546997070312500,552.4270019531250000,8.1107196807861330,42.9704399108886700,51,105,92,80,75,15178,2147746697,2147422244,2148005897,2147873554,2147623003,2147088164,2148236681,2147201170,3254,4,13,57844
1350509485,5804,403.9500122070312500,8.2952003479003900,34.1077995300293000,135.7819976806640600,546.4738769531250000,8.3003540039062500,42.3780708312988300,50,105,87,81,76,15175,2147745609,2147420580,2148000859,2147871872,2147622893,2147091126,2148234752,2147198729,2418,4,13,40486
1350509603,5807,392.9299926757812500,8.6082000732421880,34.0970001220703100,146.9472045898437500,537.3640136718750000,8.5899906158447270,41.2722702026367200,50,105,88,79,74,15179,2147740772,2147422573,2148006381,2147872804,2147622838,2147094464,2148237540,2147202386,1373,4,13,60833
1350509730,5806,382.7999877929687500,8.8341999053955080,34.1029014587402340,158.6199035644531200,530.0324096679688000,8.8226070404052730,40.2097511291503900,50,105,86,81,74,15180,2147742912,2147423990,2148003904,2147873526,2147620242,2147092370,2148237778,2147201225,1233,4,13,5902
1350509895,5806,372.0499877929687500,9.1822004318237300,34.1114997863769500,168.5263977050781200,519.2360229492188000,9.1644039154052730,39.2760810852050800,50,105,90,79,73,15180,2147738386,2147421540,2148004626,2147873947,2147622308,2147096146,2148231140,2147202907,310,4,13,63171
1350510082,5809,361.0899963378906000,9.4949998855590820,34.1147003173828100,175.9485015869140600,509.4161071777344000,9.4745302200317380,38.5732192993164060,50,108,87,80,71,15178,2147739840,2147421494,2148004288,2147870765,2147617344,2147103323,2148230985,2147202660,399,4,13,64545
1350510243,5807,350.0299987792969000,9.9433002471923830,34.1272010803222660,189.5758056640625000,494.7807006835937500,9.9354572296142580,37.3980484008789060,50,105,89,81,71,15178,2147736320,2147421732,2148001636,2147870582,2147614427,2147099190,2148228681,2147205257,1345,4,13,51433
1350510382,5810,339.1600036621094000,10.4947004318237300,34.1477012634277340,200.0204010009765600,476.9664916992187500,10.4945297241210940,36.4358406066894500,49,103,89,79,72,15178,2147739858,2147423808,2148006720,2147871981,2147611693,2147103186,2148228141,2147204644,2793,4,13,5805
1350510519,5807,326.4700012207031000,11.2454004287719730,34.1715011596679700,207.3565979003906200,451.5535888671875000,11.2886199951171880,35.5752716064453100,48,104,89,81,69,15180,2147737453,2147423853,2148009472,2147872676,2147608411,2147106505,2148222747,2147201993,3380,4,13,26110
1350510622,5811,315.3699951171875000,11.7278003692626950,34.1986999511718750,212.0594940185547000,437.5101013183594000,11.7258396148681640,35.0746803283691400,48,103,87,79,69,15178,2147734089,2147428224,2148009243,2147873316,2147601956,2147114569,2148215826,2147204086,531,4,13,20579
1350510725,5808,304.1099853515625000,12.0871000289917000,34.2198982238769500,213.4378051757812500,426.2911071777344000,12.0743503570556640,34.8172912597656250,49,104,88,82,69,15177,2147731776,2147423122,2148010898,2147873170,2147604662,2147118052,2148216822,2147204653,3079,3,13,7885
1350510844,5809,292.9700012207031000,12.5156002044677730,34.2452011108398440,214.5321044921875000,412.0292968750000000,12.5164804458618160,34.5300903320312500,49,105,88,80,69,15176,2147730093,2147426358,2148017627,2147872365,2147601453,2147120960,2148216100,2147208576,2658,3,13,50873
1350510983,5807,282.1300048828125000,12.8121004104614260,34.2668991088867200,214.7601013183593800,402.4227905273437500,12.8137502670288090,34.3674697875976560,48,104,90,80,68,15172,2147728950,2147426569,2148021805,2147873984,2147597632,2147126848,2148216493,2147206656,1848,4,14,36384
1350511124,5808,271.3900146484375000,13.8053998947143550,34.3338012695312500,214.4535064697265600,370.8418884277344000,13.7882204055786130,33.8993682861328100,50,104,89,80,69,15173,2147727542,2147430381,2148026614,2147872868,2147596132,2147132196,2148219876,2147205869,1262,4,13,65525
1350511275,5810,261.2200012207031000,14.3674001693725590,34.3700981140136700,214.9499053955078000,351.9334106445312500,14.3698902130126950,33.5868186950683600,48,104,87,80,68,15172,2147725504,2147433481,2148041563,2147871753,2147590774,2147138916,2148219318,2147210002,1351,4,13,64045
1350511455,5809,249.2799987792968800,15.3916997909545900,34.5032997131347660,214.8724975585937500,318.7658081054687500,15.3875703811645500,33.1004486083984400,49,104,87,80,66,15170,2147721170,2147439515,2148064265,2147875190,2147584676,2147149330,2148229979,2147213284,2277,4,14,30070
1350511594,5808,238.8899993896484400,16.1788997650146500,34.5922012329101560,214.6058044433593800,292.7410888671875000,16.1842803955078120,32.7376098632812500,49,107,86,81,66,15166,2147722998,2147451492,2148087789,2147870738,2147582226,2147165824,2148230070,2147215725,3270,4,13,24510
1350511766,5807,226.9299926757812500,17.1485004425048830,34.7044982910156250,212.0914001464843800,260.0902099609375000,17.1823291778564450,32.4099197387695300,50,105,88,81,66,15164,2147718811,2147465088,2148134482,2147870646,2147575689,2147174656,2148251520,2147216713,864,3,14,38533
1350511881,5810,216.4900054931640600,17.8087005615234380,34.7750015258789060,209.9414062500000000,240.0009002685547000,17.7959308624267580,32.2466011047363300,50,108,89,80,66,15158,2147720667,2147487433,2148193417,2147873334,2147573174,2147191277,2148272256,2147216713,1588,4,14,48525
1350512010,5807,204.8999938964843800,18.8071002960205080,34.9002990722656250,211.9927978515625000,207.1726074218750000,18.7984790802001950,31.6782798767089840,53,109,90,81,66,15151,2147725961,2147522953,2148281133,2147870774,2147574372,2147217801,2148311725,2147221046,2013,3,15,55746
1350512101,5809,196.8699951171875000,19.0422992706298830,34.9361000061035160,210.7321014404297000,197.7611999511718800,19.0859794616699220,31.6182899475097660,56,107,87,80,66,15146,2147733577,2147564763,2148376640,2147872064,2147577590,2147251602,2148352667,2147219474,1114,3,14,21119
1350512156,5808,192.0500030517578000,19.4351005554199220,34.9784011840820300,210.9882965087890600,186.7682952880859400,19.4218692779541000,31.4541893005371100,59,110,88,80,64,15146,2147738230,2147595254,2148448000,2147873654,2147578093,2147262208,2148386368,2147228242,987,3,14,20458
1350512211,5806,187.3399963378906200,19.6772994995117200,35.0055999755859400,211.6244964599609400,178.7257995605468800,19.6676998138427730,31.3107604980468750,61,110,86,81,64,15143,2147752310,2147631972,2148526189,2147869906,2147581357,2147291410,2148417179,2147230427,814,2,14,51904
1350512266,5808,182.9900054931640600,19.8582992553710940,35.0336990356445300,213.3827972412109400,172.2680053710937500,19.8651504516601560,31.1286602020263670,63,109,89,81,62,15142,2147762633,2147667803,2148605120,2147870628,2147584384,2147315428,2148455149,2147235840,3173,2,14,19697
1350512341,5810,177.6799926757812500,20.1028003692626950,35.0588989257812500,215.6403961181640600,165.6472930908203000,20.0676403045654300,30.9198894500732420,64,110,85,81,62,15139,2147781961,2147720621,2148716269,2147872749,2147591442,2147345188,2148510646,2147236699,1913,3,15,16497
1350512396,5809,174.4299926757812500,20.3864002227783200,35.0820007324218750,215.5287933349609400,155.5469055175781200,20.3767108917236330,30.7905197143554700,70,111,89,82,64,15136,2147803446,2147759067,2148798116,2147873042,2147597705,2147371785,2148539574,2147243163,2590,3,15,18866
1350512475,5808,170.2899932861328000,20.6945991516113280,35.1083984375000000,215.6876983642578000,145.5332031250000000,20.6833000183105470,30.6491794586181640,72,112,91,81,64,15132,2147826587,2147823012,2148926692,2147875501,2147607460,2147399250,2148594093,2147245302,2302,3,15,43588
1350512554,5808,166.6499938964843800,21.1868000030517580,35.1515998840332000,216.4423065185547000,129.4333038330078000,21.1767196655273440,30.3968296051025400,83,113,90,82,63,15122,2147859117,2147903030,2149075638,2147874313,2147620105,2147442852,2148656923,2147252242,1314,2,15,46684
1350512647,5809,162.7599945068359400,21.2859001159667970,35.1655006408691400,220.0175018310547000,126.1087036132812500,21.2786903381347660,30.1692905426025400,83,115,90,82,63,15116,2147910619,2148001069,2149263350,2147875428,2147642322,2147492717,2148734573,2147252946,424,3,15,60375
1350512726,5809,158.6199951171875000,21.3782005310058600,35.1752014160156250,220.2658996582031200,122.9837036132812500,21.3745594024658200,30.1155891418457030,90,117,88,82,64,15117,2147973504,2148122816,2149490870,2147878948,2147662994,2147557184,2148828653,2147263945,3026,3,15,24357
1350512805,5806,154.0800018310547000,21.5767993927001950,35.2033996582031250,221.1042022705078000,117.5487976074218800,21.5413608551025400,30.0021800994873050,87,117,89,81,62,15110,2148066038,2148296036,2149807515,2147881462,2147698404,2147642029,2148958134,2147274441,3397,2,15,44626
1350512872,5806,150.2400054931640600,21.7273998260498050,35.2080993652343750,222.5885925292968800,112.0448989868164000,21.7103691101074220,29.8560695648193360,91,119,89,83,62,15105,2148158372,2148461174,2150104886,2147880731,2147732772,2147726564,2149076571,2147285202,348,3,15,20942
1350512941,5806,146.6699981689453000,21.9974994659423830,35.2253990173339840,223.4488067626953000,102.6692962646484400,21.9984798431396500,29.6917190551757800,94,118,89,84,63,15104,2148272155,2148650596,2150430564,2147883702,2147777435,2147811958,2149213394,2147292690,742,2,15,49170
1350513032,5811,142.6399993896484400,22.1767997741699220,35.2318992614746100,225.6970977783203000,97.6428070068359400,22.1530609130859380,29.5160408020019530,102,119,90,83,63,15092,2148421604,2148884480,2150830134,2147888640,2147833453,2147922066,2149374125,2147306102,3434,2,15,27485
1350513123,5804,138.8000030517578000,22.2756996154785160,35.2310981750488300,225.8471069335937500,93.8659591674804700,22.2692604064941400,29.4601707458496100,110,119,90,82,62,15086,2148603136,2149157202,2151296768,2147893970,2147897673,2148050002,2149550107,2147321225,2954,2,16,21923
1350513226,5807,135.1600036621093800,22.6396999359130860,35.2566986083984400,228.5429992675781200,82.7853164672851600,22.6104793548584000,29.1874408721923830,119,118,88,84,63,15078,2148801078,2149471195,2151822948,2147901513,2147971172,2148174198,2149742336,2147340827,3175,2,16,60504
1350513476,5814,131.5200042724609400,22.8272991180419920,35.2650985717773440,235.5408020019531200,76.7473678588867200,22.7966098785400400,28.7805500030517580,120,118,91,82,62,15069,2149130971,2149943753,2152523858,2147909056,2148096384,2148375305,2149997988,2147361865,2701,2,16,38255
1350513695,5808,127.3300018310546900,23.1037006378173830,35.2681007385253900,238.6157989501953000,67.0490112304687500,23.0958690643310550,28.5170402526855470,119,118,90,82,61,15069,2149722386,2150780598,2153735012,2147927369,2148326573,2148726244,2150450093,2147402048,204,2,15,750
1350513846,5807,123.0100021362304700,23.1884994506835940,35.2662010192871100,239.8654022216797000,64.6161804199218800,23.1710090637207030,28.4300098419189450,114,120,91,83,61,15064,2150390308,2151686939,2154962596,2147944685,2148581586,2149089188,2150916790,2147442669,2644,3,15,59187
1350513961,5806,118.2799987792968800,23.2504997253417970,35.2658004760742200,240.8972015380859400,62.2931098937988300,23.2427692413330080,28.3545703887939450,110,120,90,85,60,15058,2151446985,2153064457,2156788461,2147975360,2148998518,2149683867,2151640822,2147511917,3228,2,16,40014
1350514028,5808,114.5500030517578100,23.3738994598388670,35.2472991943359400,240.9346923828125000,57.3792686462402340,23.3946495056152340,28.2914390563964840,105,120,91,83,62,15056,2152421851,2154300836,2158356160,2148006043,2149403209,2150221174,2152283099,2147571794,3405,2,16,52099
1350514107,5810,110.4400024414062500,23.6198005676269530,35.2546997070312500,242.9463958740234400,51.9299316406250000,23.5631999969482420,28.1338100433349600,99,122,88,83,61,15054,2153637339,2155849737,2160327533,2148050989,2149956745,2150969654,2153149851,2147651072,470,2,16,64505
1350514186,5809,106.8099975585937500,23.7943992614746100,35.2692985534668000,243.3162994384765600,46.0965309143066400,23.7437801361084000,28.0449600219726560,99,121,92,86,61,15053,2154937344,2157495232,2162329051,2148104704,2150554651,2151739172,2154006189,2147735488,1148,2,16,36238
1350514280,5805,103.0199966430664000,23.8323001861572270,35.2303009033203100,244.5484008789062500,43.8524398803710940,23.8132991790771500,27.9627799987792970,98,124,94,86,59,15047,2156511506,2159420388,2164588507,2148171373,2151306185,2152701467,2155065993,2147831195,1294,2,16,58628
1350514455,5807,99.7799987792968800,23.7313003540039060,35.1337013244628900,245.1219940185547000,46.9811706542968750,23.7163906097412100,27.9763507843017580,102,126,94,85,59,15027,2158163044,2161357558,2166608512,2148232621,2152136521,2153681051,2156056347,2147922742,1754,2,16,49320
1350514654,5802,97.4000015258789000,23.8838996887207030,35.0998992919921900,245.4002990722656200,41.9040718078613300,23.8736705780029300,27.9013404846191400,96,128,91,85,60,15008,2160593197,2163991122,2169123355,2148308160,2153439113,2155143241,2157491995,2148052800,2802,2,16,43993
1350514757,5807,95.3600006103515600,23.9909992218017580,35.0942993164062500,245.1726074218750000,38.8990592956543000,23.9668197631835940,27.8742103576660160,89,130,95,86,59,15025,2162447954,2166106889,2171242121,2148382756,2154498176,2156355044,2158625682,2148158134,2621,2,16,33826
1350514871,5807,92.5000000000000000,24.0692996978759770,35.0947990417480500,244.9338073730468800,35.2948112487793000,24.0785999298095700,27.8402004241943360,86,131,92,86,59,15021,2165682697,2169770066,2174876854,2148522861,2156351268,2158473618,2160574363,2148353133,2273,2,15,55677
1350514926,5808,90.2300033569336000,24.1667003631591800,35.0887985229492200,244.6484985351562500,32.5727500915527340,24.1630592346191400,27.8190708160400400,85,130,94,86,59,15022,2167812342,2172037074,2177052873,2148623680,2157611419,2159879213,2161864384,2148477092,2468,2,16,17979
1350514981,5808,88.0000000000000000,24.3269996643066400,35.0647010803222660,244.2097930908203000,27.7360095977783200,24.3132400512695300,27.7786903381347660,83,131,91,87,58,15014,2170424704,2175003593,2180009060,2148762148,2159196214,2161652297,2163429129,2148633700,2038,2,16,48592
1350515036,5816,85.9499969482421900,24.3784999847412100,35.0601997375488300,244.2077026367187500,26.3874607086181640,24.3551292419433600,27.7621593475341800,81,132,93,85,59,15016,2172707190,2177455780,2182330230,2148883428,2160701037,2163289243,2164839488,2148778633,1816,2,16,10433
1350515091,5809,83.8799972534179700,24.4557991027832030,35.0536003112793000,243.8291015625000000,23.7239208221435550,24.4379005432128900,27.7459297180175780,79,130,93,85,58,15023,2175157824,2180100416,2185100260,2149059593,2162239122,2164969846,2166350720,2148929097,2349,2,16,10900
1350515146,5809,81.7699966430664000,24.5081005096435550,35.0489997863769500,243.7169036865234400,21.7639408111572270,24.4988307952880860,27.7268390655517580,81,134,93,87,56,15022,2177847122,2182859465,2187737865,2149243154,2163964068,2166855716,2167983606,2149099245,2519,1,16,37491
1350515225,5809,78.3399963378906200,24.5953006744384770,35.0364990234375000,243.6098937988281200,19.0624294281005860,24.5828495025634770,27.6981391906738280,77,129,95,85,57,15014,2183579977,2189161865,2193961152,2149665947,2167880685,2171103469,2171565659,2149481682,2025,2,16,54698
1350515280,5809,75.4199981689453100,24.6823005676269530,35.0281982421875000,243.1918029785156200,15.8531503677368160,24.6827106475830080,27.6771106719970700,78,128,92,86,57,15018,2188515126,2194179227,2198612416,2150057947,2171549302,2174898340,2174610916,2149822080,2012,2,16,38068
1350515335,5805,72.8099975585937500,24.7814998626709000,35.0293998718261700,242.6678009033203000,13.8311195373535160,24.7456493377685550,27.6753101348876950,76,128,94,87,58,15009,2193254518,2198883401,2203068434,2150488155,2174788772,2178187922,2177249508,2150127314,2370,2,16,38269
1350515390,5808,70.6800003051757800,24.8479995727539060,35.0292015075683600,242.1685943603515600,11.0001897811889650,24.8338203430175780,27.6626300811767580,74,130,94,85,57,15002,2197984274,2203796900,2208185216,2150970294,2177947931,2181556297,2180093650,2150439186,2874,2,16,42248
1350515445,5808,68.7500000000000000,25.0496997833251950,35.0278015136718750,241.3800964355468800,4.8703727722167970,25.0248794555664060,27.6219806671142580,73,129,95,86,61,14984,2201593005,2207358829,2211215588,2151313737,2181050112,2184568859,2182331318,2150702582,2644,2,16,56181
1350515500,5812,67.3199996948242200,25.0974998474121100,35.0307998657226560,241.1188049316406200,2.9633131027221680,25.0843696594238280,27.6102504730224600,73,127,94,88,57,14997,2204946368,2211178825,2214969097,2151686546,2183928493,2187453787,2184484169,2150989860,2178,2,16,25593
1350515579,5811,64.9199981689453100,25.1308994293212900,35.0321998596191400,240.9806976318359400,1.5918550491333008,25.1271591186523440,27.5993309020996100,72,130,91,86,57,15001,2211812763,2218159835,2221647972,2152661156,2190063414,2193520100,2189049938,2151582345,2013,2,16,55078
1350515634,5810,62.2200012207031250,25.2296009063720700,35.0363006591796900,240.4987945556640600,-1.4573160409927368,25.2223396301269530,27.5832996368408200,69,128,94,88,59,14996,2218854509,2225156278,2227903561,2153498898,2196392786,2199654765,2193580315,2152148736,1878,2,16,9447
1350515689,5809,59.3499984741210940,25.3194999694824220,35.0401000976562500,239.9929962158203000,-4.1832180023193360,25.3074703216552730,27.5722503662109380,68,127,91,86,58,14979,2226420278,2232712713,2235261632,2154879204,2203733293,2206838902,2199041051,2152856960,2132,2,16,22467
1350515744,5808,56.4799995422363300,25.3707008361816400,35.0470008850097660,239.7359008789062500,-6.2644510269165040,25.3724994659423830,27.5582695007324220,66,126,95,86,57,14980,2234890020,2241211410,2243659702,2156359488,2211793938,2214450221,2204604690,2153642203,2447,2,16,6018
1350515799,5806,53.6599998474121100,25.4566993713378900,35.0578002929687500,239.6085052490234400,-8.6907863616943360,25.4483509063720700,27.5341892242431640,63,127,95,86,56,14994,2243962614,2249620937,2252025956,2158366299,2220492352,2222815762,2210940032,2154559552,3096,2,16,61679
1350515854,5807,50.9799995422363300,25.4605007171630860,35.0491981506347660,239.6069946289062500,-9.3344717025756840,25.4684791564941400,27.5264396667480470,64,125,93,86,59,14994,2255767872,2261784859,2264503524,2160793883,2230778889,2232833307,2218449334,2155776320,201,2,16,14507
1350515912,5811,48.4199981689453100,25.6149997711181640,35.0528984069824200,238.8618927001953000,-13.7626695632934570,25.6070098876953120,27.5051498413085940,63,127,94,84,54,14989,2263742454,2269551122,2271851840,2163111094,2239793069,2241073645,2224272411,2156694500,314,2,16,45273
1350515967,5804,46.5099983215332000,25.6863994598388670,35.0598983764648440,238.6387939453125000,-16.1687507629394530,25.6823406219482420,27.4857807159423830,63,127,92,86,54,14999,2267955456,2273353078,2275308690,2164909430,2247753142,2248388818,2229582025,2157625362,3369,2,16,25289
1350516022,5815,45.1300010681152340,25.7844009399414060,35.0690002441406250,238.1026000976562500,-19.4558200836181640,25.7852993011474600,27.4693603515625000,62,126,92,85,59,14991,2275784841,2282588525,2284642011,2167129124,2254254134,2253921051,2233096073,2158168658,2690,2,16,26667
1350516125,5815,43.7599983215332000,25.9062995910644530,35.0873985290527340,237.0043945312500000,-23.3201007843017580,25.9064407348632800,27.4711208343505860,59,124,94,86,56,14997,2279796937,2286512786,2288195995,2168636562,2261743213,2260189485,2236794870,2158785636,2694,2,16,37692
1350516275,5809,41.0099983215332000,26.0326004028320300,35.1105995178222660,235.4436035156250000,-27.2380695343017580,26.0293598175048830,27.4933700561523440,59,122,92,85,55,15002,2296359451,2304252333,2305489252,2173819410,2286867227,2282497481,2251152795,2161369499,1306,2,16,15883
1350516330,5808,38.8100013732910160,26.0983009338378900,35.1208992004394500,235.1690063476562500,-29.3158607482910160,26.0945796966552730,27.4802894592285160,58,123,91,85,55,15008,2304116726,2310938496,2312520512,2177551634,2301331748,2295148059,2259813129,2162920621,745,2,15,35227
1350516385,5811,36.5099983215332000,26.1485996246337900,35.1288986206054700,234.8139953613281200,-31.2617702484130860,26.1556892395019530,27.4724998474121100,57,121,94,84,58,15000,2313431881,2320889755,2323499008,2183516187,2314473819,2306652918,2267735250,2164781202,3386,2,16,1968
1350516440,5809,34.1199989318847660,26.1581993103027340,35.1305007934570300,234.7308044433593800,-31.6450290679931640,26.1677303314209000,27.4715995788574220,56,121,91,84,56,15010,2317252818,2324478198,2326656064,2187740324,2329715117,2319781449,2276256475,2166541558,3126,2,16,20086
1350516495,5810,31.5799999237060550,26.1704006195068360,35.1310005187988300,234.7279052734375000,-32.0937881469726560,26.1818294525146500,27.4661407470703120,55,123,95,84,57,15006,2336294198,2345662528,2350158171,2198935442,2349006820,2336831917,2287696365,2169279186,3358,1,16,33528
1350516574,5809,27.3099994659423830,26.1903991699218750,35.1324005126953100,234.5872955322265600,-32.7041397094726560,26.2010097503662100,27.4651699066162100,54,119,92,85,53,15007,2353812736,2363554093,2368675803,2216616557,2384083675,2367297499,2308055369,2175072347,3348,2,16,55032
1350516629,5807,23.7999992370605470,26.2136993408203120,35.1315002441406250,234.6248016357422000,-33.7077789306640600,26.2325496673584000,27.4511299133300780,54,120,90,85,57,15005,2376240502,2387812507,2395608018,2238072969,2416028123,2395502061,2327172745,2182147702,139,2,16,6704
